This demonstration page uses our WeatherBlox Daily Observations layout. Learn more.

Left ArrowRight Arrow

40.92945, -100.16068

Hourly Observations for April 29, 2016

Temp ( °F °C ) Dew Point ( °F °C ) Humidity (%) Winds ( mph kmh ) Pressure ( in mb ) Visibility ( mi km ) Precip ( " mm )
12:15 am 00:15 Cloudy 45 7 41 5 87 87 ENE 5 7 30.15 1021 10 16 N/A
12:35 am 00:35 Cloudy 44 6.8 41 4.9 88 88 ENE 5 7 30.15 1021 10 16 N/A
12:55 am 00:55 Cloudy 44 6.7 41 5 89 89 ENE 3 6 30.15 1021 10 16 N/A
1:15 am 01:15 Cloudy 44 6.6 41 5.1 90 90 NE 5 7 30.15 1021 10 16 N/A
1:35 am 01:35 Cloudy 44 6.6 41 5.1 90 90 ENE 5 7 30.15 1021 10 16 N/A
1:55 am 01:55 Cloudy 44 6.4 40 4.5 88 88 E 9 15 30.15 1021 10 16 N/A
2:15 am 02:15 Cloudy 43 6.1 40 4.5 90 90 ENE 10 17 30.15 1021 10 16 N/A
2:35 am 02:35 Cloudy 42 5.8 40 4.3 90 90 ENE 10 17 30.15 1021 10 16 N/A
2:55 am 02:55 Cloudy 42 5.8 40 4.2 90 90 E 7 11 30.15 1021 10 16 N/A
3:15 am 03:15 Cloudy 43 5.9 40 4.4 90 90 ENE 8 13 30.15 1021 10 16 N/A
3:35 am 03:35 Cloudy 42 5.7 40 4.2 90 90 ENE 7 11 30.15 1021 10 16 N/A
3:55 am 03:55 Cloudy 42 5.7 40 4.3 91 91 ENE 6 9 30.15 1021 10 16 N/A
4:15 am 04:15 Cloudy 42 5.7 40 4.3 91 91 NE 6 9 30.12 1020 10 16 N/A
4:35 am 04:35 Cloudy 42 5.5 40 4.2 91 91 NE 9 15 30.12 1020 10 16 N/A
4:55 am 04:55 Cloudy 42 5.5 40 4.2 91 91 E 6 9 30.12 1020 10 16 N/A
5:15 am 05:15 Cloudy 42 5.5 39 4.1 91 91 ENE 6 9 30.12 1020 10 16 N/A
5:35 am 05:35 Cloudy 42 5.5 39 4.1 91 91 NE 6 9 30.12 1020 10 16 N/A
5:55 am 05:55 Cloudy 42 5.5 39 3.9 90 90 NE 6 9 30.12 1020 10 16 N/A
6:15 am 06:15 Cloudy 42 5.3 38 3.5 88 88 NNE 6 9 30.12 1020 10 16 N/A
6:35 am 06:35 Cloudy 41 5.1 37 3 86 86 N 7 11 30.12 1020 10 16 N/A
6:55 am 06:55 Cloudy 41 5 38 3.5 90 90 NNE 7 11 30.09 1019 10 16 N/A
7:15 am 07:15 Cloudy 41 5 38 3.3 89 89 NNE 7 11 30.09 1019 10 16 N/A
7:35 am 07:35 Partly Cloudy 41 4.8 37 3 88 88 N 9 15 30.09 1019 10 16 N/A
7:55 am 07:55 Sunny 41 4.8 37 3 88 88 NE 8 13 30.09 1019 10 16 N/A
8:15 am 08:15 Sunny 41 5 37 2.8 86 86 NNE 8 13 30.09 1019 10 16 N/A
8:35 am 08:35 Sunny 42 5.6 37 3 84 84 NNE 9 15 30.09 1019 10 16 N/A
8:55 am 08:55 Sunny 43 6 37 2.9 81 81 N 15 24 30.09 1019 10 16 N/A
9:15 am 09:15 Sunny 44 6.5 38 3.1 79 79 N 14 22 30.09 1019 10 16 N/A
9:35 am 09:35 Sunny 44 6.6 38 3.1 79 79 NNE 13 20 30.09 1019 10 16 N/A
9:55 am 09:55 Mostly Cloudy 44 6.7 38 3.3 79 79 NE 10 17 30.09 1019 10 16 N/A
10:15 am 10:15 Cloudy 44 6.5 38 3.3 80 80 NE 12 19 30.09 1019 10 16 N/A
10:35 am 10:35 Cloudy 44 6.6 38 3.2 79 79 ENE 13 20 30.09 1019 10 16 N/A
10:55 am 10:55 Cloudy 44 6.6 37 3 78 78 NE 14 22 30.09 1019 10 16 N/A
11:15 am 11:15 Cloudy 44 6.7 38 3.2 79 79 NE 13 20 30.09 1019 10 16 N/A
11:35 am 11:35 Cloudy 43 6.2 37 3 80 80 ENE 14 22 30.09 1019 10 16 N/A
11:55 am 11:55 Cloudy 43 6.3 38 3.1 80 80 E 16 26 30.09 1019 10 16 N/A
12:15 pm 12:15 Cloudy 44 6.4 38 3.4 81 81 ENE 14 22 30.09 1019 10 16 N/A
12:35 pm 12:35 Cloudy 43 6.1 38 3.4 83 83 ENE 15 24 30.09 1019 10 16 N/A
12:55 pm 12:55 Cloudy 43 6 38 3.3 83 83 E 12 19 30.09 1019 10 16 N/A
1:15 pm 13:15 Cloudy 43 6 38 3.1 82 82 E 13 20 30.09 1019 10 16 N/A
1:35 pm 13:35 Cloudy 43 6.2 38 3.1 81 81 ENE 13 20 30.09 1019 10 16 N/A
1:55 pm 13:55 Cloudy 44 6.4 38 3.3 81 81 ENE 10 17 30.09 1019 10 16 N/A
2:15 pm 14:15 Cloudy 44 6.5 38 3.2 80 80 NE 12 19 30.06 1018 10 16 N/A
2:35 pm 14:35 Cloudy 43 6.3 38 3.2 81 81 ENE 14 22 30.06 1018 10 16 N/A
2:55 pm 14:55 Cloudy 43 6.3 38 3.4 82 82 ENE 13 20 30.06 1018 10 16 N/A
3:15 pm 15:15 Cloudy 44 6.4 38 3.2 80 80 ENE 16 26 30.03 1017 10 16 N/A
3:35 pm 15:35 Cloudy 44 6.5 38 3.5 81 81 ENE 17 28 29.97 1015 10 16 N/A
3:55 pm 15:55 Cloudy 44 6.5 38 3.5 81 81 ENE 21 33 29.94 1014 10 16 N/A
4:15 pm 16:15 Cloudy 43 6.2 38 3.6 84 84 ENE 24 39 29.91 1013 10 16 N/A
4:35 pm 16:35 Cloudy 43 6.2 38 3.5 83 83 ENE 14 22 29.97 1015 10 16 N/A
4:55 pm 16:55 Cloudy 43 6.2 38 3.5 83 83 ENE 15 24 29.94 1014 10 16 N/A
5:15 pm 17:15 Cloudy 43 6.2 38 3.6 84 84 ENE 12 19 29.94 1014 10 16 N/A
5:35 pm 17:35 Cloudy 43 6 38 3.6 85 85 ENE 16 26 29.94 1014 10 16 N/A
5:55 pm 17:55 Cloudy 43 6 39 3.8 86 86 ENE 16 26 29.94 1014 10 16 N/A
6:15 pm 18:15 Cloudy 43 6 39 3.7 85 85 ENE 16 26 29.91 1013 10 16 N/A
6:35 pm 18:35 Cloudy 43 6 39 3.8 86 86 ENE 22 35 29.94 1014 10 16 N/A
6:55 pm 18:55 Cloudy 42 5.6 38 3.6 87 87 ENE 21 33 29.94 1014 10 16 N/A
7:15 pm 19:15 Cloudy 42 5.5 38 3.5 87 87 ENE 20 31 29.94 1014 10 16 N/A
7:35 pm 19:35 Cloudy 42 5.5 38 3.5 87 87 ENE 22 35 29.94 1014 10 16 N/A
7:55 pm 19:55 Cloudy 42 5.5 38 3.5 87 87 ENE 22 35 29.94 1014 10 16 N/A
8:15 pm 20:15 Cloudy 42 5.3 38 3.4 88 88 NE 22 35 29.91 1013 7 11 N/A
8:35 pm 20:35 Cloudy 41 5.1 38 3.5 90 90 NE 24 39 29.91 1013 7 11 N/A
8:55 pm 20:55 Cloudy 41 5 38 3.6 91 91 NE 20 31 29.91 1013 7 11 N/A
9:15 pm 21:15 Cloudy with Mist and Fog 41 5 39 3.7 91 91 NE 18 30 29.91 1013 5 8 N/A
9:35 pm 21:35 Cloudy with Light Rain 41 5 39 3.8 92 92 NE 22 35 29.94 1014 5 8 N/A
9:55 pm 21:55 Cloudy with Rain 41 5 39 3.7 91 91 NE 21 33 29.94 1014 4 6 0.04 1.02
10:15 pm 22:15 Cloudy with Light Rain 41 5.1 39 4 93 93 NE 18 30 29.91 1013 4 6 0.05 1.27
10:35 pm 22:35 Cloudy with Light Rain 41 5 39 3.7 91 91 ENE 15 24 29.94 1014 4 6 0.11 2.79
10:55 pm 22:55 Cloudy with Rain 41 5 39 3.7 91 91 ESE 6 9 29.97 1015 4 6 0.17 4.32
11:15 pm 23:15 Cloudy with Light Snow 41 4.9 38 3.5 91 91 E 3 6 29.94 1014 3 4 0.10 2.54
11:35 pm 23:35 Cloudy with Light Rain 41 5 38 3.6 91 91 E 5 7 29.94 1014 2 3 0.19 4.83
11:55 pm 23:55 Cloudy with Light Rain 41 5 38 3.6 91 91 ENE 6 9 29.94 1014 7 11 0.22 5.59

Powered by AerisWeather